Regional Weather Roundup
Issued by NWS

Home | Current Version | Previous Version | Text Only | Print | Product List | Glossary Off
Versions: 1 2 3 4 5 6 7 8 9 10 11 12 13 14 15 16 17 18 19 20 21 22 23 24 25 26 27 28 29 30 31 32 33 34 35 36 37 38 39 40 41 42 43 44 45 46 47 48 49 50

000
ASUS43 KFSD 310810
RWRSD

WEATHER ROUNDUP FOR SOUTH DAKOTA
NATIONAL WEATHER SERVICE SIOUX FALLS SD
300 AM CDT TUE MAY 31 2016

NOTE: "FAIR" INDICATES FEW OR NO CLOUDS BELOW 12,000 FEET WITH NO
SIGNIFICANT WEATHER AND/OR OBSTRUCTIONS TO VISIBILITY.


SDZ001>005-009-010-012>017-310900-
NORTHWEST AND NORTH CENTRAL SOUTH DAKOTA

CITY           SKY/WX    TMP DP  RH WIND       PRES   REMARKS
BUFFALO          N/A     45  35  68 W13       29.89F
FAITH            N/A     48  42  80 W14       29.91F
MOBRIDGE       CLEAR     54  49  83 W16       29.81S
$$

SDZ012>016-024>037-041>051-057-063-072>074-310900-
SOUTHWEST AND SOUTH CENTRAL SOUTH DAKOTA

CITY           SKY/WX    TMP DP  RH WIND       PRES   REMARKS
RAPID CTY ARPT CLOUDY    51  33  50 NW13      30.02F
PIERRE         CLOUDY    54  48  80 W18       29.88R
CUSTER         CLOUDY    43  25  49 VRB7      30.07F
PHILIP         CLEAR     51  45  79 W13       29.95F
PINE RIDGE     PTCLDY    47  44  90 CALM      30.05F
WINNER         FAIR      55  49  80 NW16      29.93R
$$

SDZ004>011-016>023-039-040-310900-
NORTHEAST SOUTH DAKOTA

CITY           SKY/WX    TMP DP  RH WIND       PRES   REMARKS
ABERDEEN       CLOUDY    59  56  89 W9        29.78S
WATERTOWN      CLOUDY    62  58  86 SW12      29.78R
BROOKINGS      LGT RAIN  61  59  93 W9        29.79F
SISSETON         N/A     59  58  96 SW5       29.74R
$$

SDZ017-020-022-023-036>040-048>070-310900-
SOUTHEAST SOUTH DAKOTA

CITY           SKY/WX    TMP DP  RH WIND       PRES   REMARKS
SIOUX FALLS    LGT RAIN  62  59  90 S3        29.82S
HURON          CLOUDY    58  55  90 W12       29.83S
CHAMBERLAIN    CLOUDY    58  53  84 NW15G24   29.91R
MITCHELL       CLOUDY    61  58  90 W10       29.86R
YANKTON        CLOUDY    63  57  82 SW7       29.86R
$$

ABBREVIATIONS USED IN REMARKS
   TC - TEMPERATURE IN CELSIUS
  WCI - WIND CHILL INDEX
   HX - HEAT INDEX
  VSB - VISIBILITY





USA.gov is the U.S. government's official web portal to all federal, state and local government web resources and services.